STARLINK-35264, 65900

Orbit data source: Space-Track

STARLINK-35264, 65900 is a payload satellite owned by SpaceX/Seattle (US) in LEO that was launched on Tue, 07 Oct 2025 UTC via an FALCON 9 launch vehicle from the Air Force Eastern Test Range (AFETR). Payload-class satellites include a variety of spacecraft equipped with specific instruments for various scientific and technological missions. These include communications satellites like Starlink; space stations such as the ISS; scientific satellites like the Hubble; Earth observation satellites from companies like Planet Labs, Umbra, and HawkEye 360; GPS; miniature CubeSats for education and research; and military/defense satellites.

Loading next visibility...
Identifier
65900, 2025-224U
Orbit
LEO
Country
Flag of USUS
Related business
Manufacturer
SpaceX/Seattle
Mission
Operational Commercial Communications
Bus & Motor
STARLINK V2MO, Unknown motor
Mass
575 kg wet, ~530 kg dry
Launch date (UTC)
2025-10-07 (5 months ago)
Launch vehicle
FALCON 9
Launch site
Air Force Eastern Test Range (AFETR)
Object type
Payload
Rocket body
Debris
Shape & HBR
Box + 2 Pan, 17.7 m
Radar Cross Section
36.964 m²

Expand to show TLE details & history
Last TLE update: 10 hours ago

TLE from 10 hours ago
0 STARLINK-35264
1 65900U 25224U   26062.32176181  .00039464  00000-0  13373-2 0  9995
2 65900  53.1614  40.6119 0001498  70.8226 289.2936 15.30203505 23895
Epoch: 2026-03-03T07:43Z
TLE epoch observation values (Epoch: 2026-03-03T07:43:20.220Z)
Latitude
-0.00008°
Longitude
123.6751°
Altitude
475.765 km
Speed
7.629 km/s
True Right ascension
02h 42m 26s
True Declination
0° 00' 00"
Sunlit
Object was in daylight at epoch
Visualization orbit readout
Latitude
Unknown
Longitude
Unknown
Altitude
Unknown
Speed
Unknown
Apparent Right ascension
Unknown
Apparent Declination
Unknown
Sunlit
N/A
Visualization observer readout
Local Sidereal Time
21:20:34
Azimuth
Unknown
Elevation
Unknown
Doppler factor
Unknown
Orbital elements
Apogee altitude
476.487 km
Perigee altitude
474.434 km
Semi-major axis
6,853.598 km
Eccentricity
0.00015
Inclination
53.1614°
RAAN
40.6119°
Arg. of periapsis
70.8226°
True anomaly
289.2774°
Mean anomaly
289.2936°
Eccentric anomaly
289.2855°
Mean motion
3.8253 °/min
Orbital period
94.11 mins
BSTAR
0.0013373
Loading maneuver chart data...
Computing Atmospheric mass density...
Loading historical data...
Loading historical data...
Loading historical data...
Loading historical data...
Loading historical data...
Loading historical data...
Loading historical data...

Documentation

Showing up to 5 results
|